Wind_Speed
5 7 8 10 12 13 15 16 16 17 19 20 20 20 20 20 20 20 20 20 19 18 18 18 17 17 17 17 18 19 19 19 19 19 20 21 21 21 21 21 21 22 23 24
6 7 9 11 12 13 14 15 16 17 19 20 20 20 20 19 19 19 19 19 18 18 19 19 19 19 18 18 19 19 20 20 20 20 20 22 22 21 21 21 22 23 23 24
7 9 10 12 13 14 14 15 16 17 18 19 20 19 19 18 18 18 18 19 20 20 20 19 19 19 19 19 19 19 20 20 19 19 19 20 21 21 22 22 23 23 23 24
8 10 12 13 14 14 14 15 16 17 18 19 19 19 18 18 17 18 18 18 19 20 19 19 19 20 20 19 19 19 20 20 19 20 20 20 21 22 22 22 23 23 24 25
9 10 12 13 14 15 15 16 17 17 18 18 18 19 17 17 18 18 18 18 18 19 19 20 20 20 20 19 19 20 21 20 20 19 19 20 21 21 21 22 22 23 24 24
11 12 13 14 15 15 16 17 18 18 19 19 18 19 18 17 17 18 19 19 19 18 19 19 19 20 20 19 19 20 21 21 21 21 20 20 20 20 21 22 23 23 24 25
13 14 15 15 15 16 17 19 19 20 20 19 18 19 17 17 18 19 19 19 19 19 18 19 19 20 20 19 20 21 22 21 20 20 20 21 21 21 22 22 23 24 25 25
15 15 15 17 18 18 18 19 20 21 21 20 19 19 18 18 18 18 17 18 18 18 18 19 19 19 19 19 20 21 22 22 22 21 20 21 22 22 23 23 23 24 24 24
19 18 17 19 19 19 19 18 19 20 20 20 20 19 19 19 19 18 18 18 18 18 19 19 18 19 19 19 20 20 21 21 21 22 22 22 22 23 23 23 24 24 23 23
23 23 20 20 20 19 20 20 19 20 20 21 20 18 19 18 18 18 18 17 18 18 19 18 18 18 18 18 20 21 20 20 21 22 22 22 23 23 23 23 22 22 22 22
25 25 23 21 21 21 20 20 20 21 21 21 20 17 18 18 18 18 17 17 17 17 17 17 17 17 17 18 19 19 20 20 20 21 21 22 22 23 22 21 22 22 21 22
25 26 25 23 22 21 20 20 19 20 20 19 20 18 17 17 17 17 16 16 16 16 16 16 16 16 17 18 19 19 19 20 20 20 20 21 21 21 21 21 21 22 22 22
26 26 26 24 23 22 21 20 19 20 20 20 20 19 18 18 18 17 16 17 16 15 15 16 16 17 17 18 19 19 18 19 19 19 19 19 19 19 20 20 21 21 21 21
27 26 25 24 22 22 22 21 20 21 21 21 20 19 17 18 18 18 18 17 16 16 15 16 17 17 17 17 17 17 18 19 19 18 18 18 18 18 19 19 19 19 19 20
28 27 25 25 24 24 23 22 21 21 21 22 21 19 17 17 17 18 18 17 16 16 16 16 17 17 17 17 17 17 17 17 17 17 17 17 17 17 18 18 18 18 19 19
28 27 25 24 24 25 24 22 20 20 20 20 20 18 17 17 17 18 18 17 17 17 16 16 16 17 17 16 16 16 16 16 16 17 17 17 16 16 17 17 18 18 19 18
26 25 25 24 23 24 24 20 20 20 20 19 19 17 16 16 16 17 17 17 17 16 17 16 16 17 16 16 15 15 15 15 15 16 16 15 15 15 16 17 17 18 18 18
24 24 24 24 23 24 20 18 19 19 19 18 17 16 16 15 16 16 17 16 16 16 17 16 15 15 15 14 13 13 13 14 14 14 14 13 14 15 15 16 16 17 18 17
22 22 22 23 23 22 18 17 17 18 18 17 16 16 16 16 16 15 15 15 16 16 16 14 14 13 13 12 12 12 13 13 13 13 12 13 13 13 14 14 15 17 17 17
21 21 21 21 21 20 18 17 18 18 17 16 16 16 15 15 15 15 15 14 14 15 14 14 13 12 12 12 12 12 12 12 12 12 12 12 12 12 13 14 15 16 17 17
20 20 20 20 20 18 17 17 17 17 16 16 15 14 13 14 15 15 15 15 15 14 14 13 12 12 11 11 10 10 10 10 11 12 11 11 12 12 13 14 15 16 16 17
19 19 19 19 19 17 17 16 17 16 16 15 14 14 13 14 14 14 14 14 14 14 13 12 11 11 10 10 9 10 10 10 10 10 11 11 12 12 13 14 15 15 16 16
18 19 18 19 18 16 16 16 16 15 14 14 13 13 13 13 13 13 13 13 13 12 10 10 10 10 9 9 9 9 9 9 9 9 10 11 11 12 12 13 14 15 16 17
18 18 18 18 17 16 16 16 16 15 13 12 12 11 12 12 12 12 11 11 11 11 10 10 9 9 8 8 9 8 9 9 9 9 10 10 10 10 11 12 14 14 15 16
18 18 17 17 16 16 15 16 16 14 12 12 11 11 11 11 12 11 10 10 9 9 9 9 8 7 7 7 7 7 8 8 8 9 9 9 10 11 12 13 14 15 15 16
18 18 16 15 16 17 16 16 15 14 13 12 11 11 11 11 10 10 9 7 7 7 6 6 6 6 6 6 6 6 7 7 8 8 9 9 10 11 12 13 14 15 16 17
Wind_Direction
234 245 248 253 259 263 263 264 265 265 265 267 270 272 272 272 274 276 276 275 274 279 283 283 283 285 285 285 285 291 293 294 290 291 293 293 293 293 295 296 295 295 296 297
244 253 256 262 267 268 269 270 269 270 271 274 277 277 277 276 277 277 276 273 273 277 281 283 282 281 284 287 288 292 294 292 288 288 289 292 292 291 290 291 293 294 295 297
261 262 263 266 269 269 271 274 273 275 277 278 281 281 278 275 277 278 278 276 275 278 280 281 280 279 281 284 290 292 292 292 289 287 287 288 290 288 287 289 294 297 298 299
270 272 272 272 270 268 269 272 274 277 279 280 279 280 277 276 276 280 280 278 277 276 275 273 277 280 281 282 286 290 290 289 288 288 291 289 288 289 288 291 293 296 298 298
274 274 273 272 271 271 271 273 275 277 280 278 278 280 279 277 278 281 280 279 280 277 273 272 276 278 277 280 283 287 289 287 287 290 291 289 288 291 292 294 295 298 299 299
278 278 277 273 273 274 278 279 278 278 282 282 282 283 281 280 281 284 283 281 283 281 275 272 275 277 279 282 284 288 290 288 286 287 289 290 290 291 293 294 296 297 298 299
284 285 284 279 276 276 278 281 281 281 284 285 286 288 287 285 285 286 283 283 283 281 276 276 275 277 279 283 286 289 291 289 288 288 288 291 292 291 292 293 294 296 298 299
287 287 285 282 279 277 277 278 280 284 286 285 284 288 289 289 288 289 286 285 283 280 278 279 278 278 279 283 288 291 291 289 292 292 293 293 293 292 292 293 295 298 299 300
289 290 286 283 282 280 279 280 282 285 287 287 288 288 288 290 288 287 287 284 280 277 277 279 279 280 282 285 288 292 294 292 294 295 295 295 296 295 295 296 297 299 301 303
290 291 289 284 282 279 278 281 282 286 291 292 293 293 293 292 291 290 288 282 278 277 277 277 278 279 281 284 288 290 293 294 295 296 297 297 297 299 300 300 300 301 303 305
288 288 288 284 283 279 276 276 278 283 286 290 293 297 299 297 294 294 289 284 279 278 278 278 278 279 282 284 290 291 292 295 298 300 298 299 298 300 301 301 302 303 304 307
286 286 285 283 281 277 275 276 276 280 283 286 290 296 298 298 296 295 290 285 283 280 281 282 282 284 286 286 290 294 295 297 300 300 299 301 301 301 302 303 305 307 307 308
286 285 284 280 277 278 275 275 276 279 280 283 287 293 293 291 291 292 290 286 285 281 281 284 283 284 286 287 291 295 295 298 301 303 305 306 304 304 304 305 308 311 310 310
283 283 282 279 276 276 275 274 275 278 281 282 285 290 290 288 288 288 287 287 287 286 284 285 284 284 286 289 292 296 297 299 301 304 307 307 307 306 307 310 314 315 315 314
281 279 277 274 274 274 273 271 274 278 282 282 284 286 287 285 286 286 286 289 289 289 288 289 289 288 290 291 293 295 297 301 303 305 307 308 308 309 311 314 317 319 319 317
281 278 274 271 272 272 271 269 271 274 278 282 285 285 282 280 282 285 285 289 289 290 288 289 288 289 289 290 294 297 300 302 307 309 308 308 310 313 315 318 318 318 319 319
279 278 275 272 271 271 271 270 270 271 276 282 284 283 278 277 280 284 284 287 288 290 289 286 284 285 286 291 296 299 302 305 308 309 309 308 311 315 317 318 319 320 321 322
280 278 275 274 272 270 272 272 273 273 274 278 281 283 277 277 279 283 284 286 286 291 294 288 288 287 287 291 296 300 305 308 310 310 309 310 313 316 317 319 322 325 327 327
279 278 276 272 271 271 269 271 272 273 275 278 280 280 278 276 279 283 286 285 286 290 292 289 287 287 289 293 297 301 306 312 316 316 315 315 316 317 318 323 325 328 330 330
274 275 276 273 269 269 271 271 270 271 275 277 278 276 276 275 278 284 286 285 287 288 289 289 287 287 290 294 299 304 308 313 318 322 324 324 321 319 322 326 327 329 330 331
273 274 274 270 265 266 271 271 269 269 273 273 272 271 272 274 279 282 282 283 284 287 290 291 290 289 292 295 299 306 312 318 323 327 327 328 326 325 325 326 328 331 333 334
274 272 270 266 266 266 268 268 267 267 268 268 266 267 271 276 280 280 281 282 283 286 287 288 290 289 292 297 302 310 315 319 323 326 328 330 330 329 329 328 329 333 335 336
272 271 268 264 262 261 263 265 263 263 266 264 263 264 268 273 278 280 280 283 284 283 284 288 291 292 293 297 300 306 313 317 322 327 329 330 330 330 333 334 335 336 335 335
266 266 265 261 258 256 258 257 258 262 264 262 261 263 264 270 275 276 276 280 281 279 280 288 291 291 290 293 298 307 315 321 327 332 334 336 336 337 339 339 340 341 341 341
263 263 262 260 256 252 250 252 256 258 256 257 258 264 266 269 271 272 272 278 277 276 278 283 287 288 290 294 301 310 318 324 330 332 335 339 339 337 338 340 341 345 346 344
261 261 259 255 253 247 246 249 253 253 253 253 253 256 262 266 269 271 271 268 268 268 270 275 283 288 294 301 306 312 318 323 328 332 334 338 342 342 342 342 344 347 346 345
Height
5838 5839 5839 5840 5840 5840 5840 5840 5840 5840 5839 5839 5839 5839 5839 5839 5839 5839 5839 5839 5838 5838 5837 5836 5836 5835 5834 5833 5831 5830 5828 5827 5825 5824 5822 5820 5819 5817 5816 5814 5812 5809 5807 5805
5838 5838 5838 5838 5838 5838 5838 5838 5838 5837 5836 5836 5835 5835 5835 5835 5835 5835 5835 5835 5834 5834 5833 5832 5831 5831 5830 5829 5827 5825 5824 5822 5820 5819 5817 5816 5814 5812 5810 5808 5806 5804 5802 5800
5836 5837 5837 5837 5836 5836 5836 5836 5835 5835 5833 5832 5832 5832 5832 5832 5831 5831 5831 5830 5830 5829 5829 5828 5827 5826 5825 5824 5823 5821 5819 5817 5815 5814 5812 5810 5809 5807 5805 5803 5801 5799 5796 5794
5835 5835 5835 5835 5834 5834 5834 5833 5833 5831 5830 5829 5829 5828 5829 5828 5828 5827 5826 5826 5826 5825 5824 5823 5823 5822 5821 5820 5818 5816 5815 5813 5811 5809 5807 5805 5804 5802 5800 5799 5796 5794 5791 5788
5833 5833 5832 5832 5832 5831 5831 5830 5829 5828 5827 5826 5825 5824 5825 5824 5824 5823 5823 5822 5821 5820 5820 5819 5818 5817 5816 5815 5813 5812 5810 5808 5806 5804 5802 5801 5799 5797 5795 5793 5791 5789 5786 5783
5831 5830 5830 5830 5829 5828 5827 5827 5826 5824 5823 5822 5822 5821 5821 5820 5820 5819 5818 5818 5817 5816 5815 5814 5813 5812 5811 5810 5809 5807 5805 5803 5801 5799 5798 5795 5794 5792 5790 5788 5785 5783 5780 5777
5829 5828 5827 5827 5826 5825 5824 5823 5822 5820 5819 5819 5818 5817 5817 5817 5816 5815 5814 5813 5812 5811 5810 5809 5809 5808 5807 5805 5804 5803 5801 5799 5797 5795 5793 5791 5788 5786 5784 5782 5780 5777 5774 5772
5826 5826 5825 5823 5822 5821 5820 5819 5818 5817 5815 5815 5814 5813 5814 5812 5811 5809 5808 5807 5807 5806 5805 5804 5803 5803 5802 5801 5799 5798 5796 5794 5792 5790 5788 5786 5783 5781 5779 5776 5774 5772 5769 5766
5822 5822 5821 5819 5818 5817 5815 5814 5814 5812 5811 5810 5810 5810 5809 5807 5806 5805 5804 5803 5802 5801 5800 5799 5798 5797 5796 5796 5795 5792 5791 5789 5787 5785 5783 5780 5778 5776 5773 5771 5769 5767 5764 5761
5816 5816 5817 5815 5813 5812 5811 5810 5809 5808 5806 5805 5805 5804 5804 5802 5801 5800 5799 5798 5797 5796 5795 5794 5793 5793 5792 5791 5789 5787 5786 5784 5782 5780 5778 5776 5773 5770 5768 5766 5764 5761 5759 5756
5811 5810 5810 5809 5808 5807 5806 5805 5804 5803 5802 5801 5799 5802 5800 5797 5796 5794 5793 5792 5792 5791 5790 5789 5789 5788 5787 5786 5784 5782 5781 5779 5777 5775 5773 5771 5768 5766 5763 5761 5759 5756 5754 5751
5806 5804 5803 5803 5802 5801 5800 5800 5799 5799 5797 5796 5795 5798 5795 5793 5791 5790 5789 5788 5787 5786 5786 5785 5784 5784 5783 5781 5780 5778 5776 5774 5772 5770 5768 5766 5763 5761 5759 5757 5754 5752 5749 5746
5799 5798 5796 5796 5798 5796 5795 5794 5793 5793 5792 5791 5790 5793 5790 5788 5787 5786 5785 5783 5782 5782 5781 5780 5780 5779 5778 5777 5775 5774 5772 5770 5768 5765 5763 5761 5759 5757 5755 5753 5750 5747 5745 5742
5792 5790 5790 5790 5789 5789 5789 5789 5788 5788 5787 5786 5786 5786 5786 5784 5782 5782 5781 5779 5778 5777 5777 5776 5775 5774 5773 5772 5771 5769 5767 5765 5763 5761 5759 5757 5755 5753 5751 5749 5746 5743 5741 5738
5784 5783 5783 5782 5782 5782 5782 5783 5783 5782 5782 5781 5781 5781 5781 5779 5778 5777 5776 5776 5775 5774 5773 5772 5771 5770 5769 5767 5766 5765 5763 5761 5759 5757 5755 5753 5751 5749 5747 5745 5742 5740 5737 5734
5776 5776 5776 5776 5776 5775 5775 5776 5777 5777 5777 5776 5776 5776 5776 5775 5774 5773 5773 5772 5771 5770 5768 5767 5766 5766 5765 5764 5762 5761 5759 5757 5755 5754 5751 5749 5747 5745 5743 5741 5739 5737 5734 5731
5770 5769 5769 5769 5770 5768 5769 5772 5772 5772 5772 5772 5771 5772 5771 5771 5770 5769 5768 5767 5766 5765 5764 5763 5762 5761 5760 5760 5758 5757 5755 5754 5752 5750 5748 5746 5744 5742 5740 5738 5736 5734 5731 5728
5763 5762 5762 5762 5763 5762 5767 5767 5767 5767 5767 5767 5767 5767 5767 5767 5766 5765 5764 5763 5762 5761 5760 5759 5758 5757 5757 5756 5755 5754 5752 5750 5748 5746 5744 5743 5741 5739 5737 5735 5733 5731 5728 5725
5757 5756 5756 5756 5756 5757 5761 5761 5761 5762 5763 5763 5763 5762 5762 5762 5762 5761 5760 5759 5758 5757 5756 5755 5755 5754 5753 5752 5751 5750 5749 5747 5745 5743 5741 5739 5738 5736 5735 5733 5731 5728 5725 5722
5752 5751 5751 5751 5751 5752 5756 5756 5756 5757 5758 5758 5757 5757 5758 5757 5758 5758 5756 5755 5754 5753 5752 5751 5751 5750 5749 5749 5748 5747 5745 5744 5742 5740 5739 5737 5735 5734 5732 5730 5728 5725 5723 5720
5746 5746 5746 5746 5746 5748 5751 5751 5752 5753 5754 5754 5753 5753 5753 5753 5753 5753 5752 5751 5750 5750 5749 5748 5747 5747 5746 5745 5745 5744 5743 5741 5740 5738 5737 5735 5733 5732 5730 5728 5726 5723 5720 5718
5740 5740 5740 5741 5742 5746 5746 5746 5747 5748 5748 5749 5749 5749 5749 5749 5749 5749 5748 5748 5747 5746 5745 5745 5744 5744 5743 5743 5742 5741 5740 5739 5738 5737 5735 5733 5732 5730 5728 5726 5723 5721 5718 5715
5735 5735 5735 5737 5739 5740 5740 5741 5742 5743 5743 5744 5745 5745 5745 5745 5745 5745 5745 5744 5743 5742 5742 5741 5741 5741 5740 5740 5740 5739 5738 5737 5736 5735 5733 5731 5730 5728 5726 5724 5721 5719 5716 5713
5730 5730 5730 5732 5734 5735 5736 5737 5737 5739 5739 5740 5741 5741 5741 5742 5742 5742 5741 5740 5739 5739 5739 5739 5738 5738 5738 5738 5737 5737 5736 5735 5734 5733 5731 5730 5728 5726 5724 5722 5719 5716 5713 5710
5724 5725 5726 5727 5729 5730 5732 5732 5733 5734 5735 5736 5737 5738 5738 5738 5739 5738 5738 5737 5736 5736 5736 5736 5736 5736 5736 5735 5735 5735 5734 5733 5733 5731 5730 5728 5727 5725 5723 5721 5718 5715 5712 5708
5720 5720 5721 5723 5725 5725 5727 5728 5730 5731 5732 5733 5734 5735 5735 5735 5735 5735 5735 5734 5734 5734 5734 5734 5734 5734 5734 5734 5733 5733 5733 5732 5731 5730 5729 5727 5725 5724 5722 5719 5716 5713 5710 5707